Time,TemperatureF,DewpointF,PressureIn,WindDirection,WindDirectionDegrees,WindSpeedMPH,WindSpeedGustMPH,Humidity,HourlyPrecipIn,Conditions,Clouds,dailyrainin,SoftwareType,DateUTC
2013-01-16 00:02:00,23.0,-8.0,30.54,NE,51,12.0,15.0,25,0.00,,,0.00,,2013-01-16 07:02:00,
2013-01-16 00:12:00,23.0,-8.0,30.54,NE,51,12.0,15.0,25,0.00,,,0.00,,2013-01-16 07:12:00,
2013-01-16 00:22:00,23.0,-7.0,30.55,ENE,61,14.0,17.0,26,0.00,,,0.00,,2013-01-16 07:22:00,
2013-01-16 00:32:00,22.0,-7.0,30.55,NNE,22,6.0,15.0,27,0.00,,,0.00,,2013-01-16 07:32:00,
2013-01-16 00:42:00,22.0,-7.0,30.55,NNE,22,6.0,15.0,27,0.00,,,0.00,,2013-01-16 07:42:00,
2013-01-16 00:52:00,23.0,-7.0,30.55,NW,317,3.0,4.0,26,0.00,,,0.00,,2013-01-16 07:52:00,
2013-01-16 01:02:00,23.0,-7.0,30.57,NE,56,4.0,6.0,26,0.00,,,0.00,,2013-01-16 08:02:00,
2013-01-16 01:12:00,23.0,-7.0,30.57,NE,56,4.0,6.0,26,0.00,,,0.00,,2013-01-16 08:12:00,
2013-01-16 01:22:00,21.0,-7.0,30.57,ENE,57,5.0,8.0,28,0.00,,,0.00,,2013-01-16 08:22:00,
2013-01-16 01:32:00,20.0,-8.0,30.56,NE,39,6.0,9.0,28,0.00,,,0.00,,2013-01-16 08:32:00,
2013-01-16 01:42:00,20.0,-8.0,30.56,NE,39,6.0,9.0,28,0.00,,,0.00,,2013-01-16 08:42:00,
2013-01-16 01:52:00,20.0,-7.0,30.57,NE,44,6.0,9.0,29,0.00,,,0.00,,2013-01-16 08:52:00,
2013-01-16 02:02:00,20.0,-5.0,30.57,North,9,12.0,17.0,32,0.00,,,0.00,,2013-01-16 09:02:00,
2013-01-16 02:12:00,20.0,-5.0,30.57,North,9,12.0,17.0,32,0.00,,,0.00,,2013-01-16 09:12:00,
2013-01-16 02:22:00,20.0,-5.0,30.57,NNE,27,10.0,14.0,32,0.00,,,0.00,,2013-01-16 09:22:00,
2013-01-16 02:32:00,21.0,-4.0,30.57,NNE,21,12.0,14.0,33,0.00,,,0.00,,2013-01-16 09:32:00,
2013-01-16 02:42:00,21.0,-4.0,30.57,NNE,21,12.0,14.0,33,0.00,,,0.00,,2013-01-16 09:42:00,
2013-01-16 02:52:00,22.0,-4.0,30.58,NE,50,9.0,11.0,31,0.00,,,0.00,,2013-01-16 09:52:00,
2013-01-16 03:02:00,21.0,-4.0,30.58,ENE,60,16.0,17.0,33,0.00,,,0.00,,2013-01-16 10:02:00,
2013-01-16 03:12:00,21.0,-4.0,30.58,ENE,60,16.0,17.0,33,0.00,,,0.00,,2013-01-16 10:12:00,
2013-01-16 03:22:00,18.0,-5.0,30.58,ENE,63,15.0,18.0,35,0.00,,,0.00,,2013-01-16 10:22:00,
2013-01-16 03:32:00,18.0,-4.0,30.59,NE,45,7.0,11.0,37,0.00,,,0.00,,2013-01-16 10:32:00,
2013-01-16 03:42:00,18.0,-4.0,30.59,NE,45,7.0,11.0,37,0.00,,,0.00,,2013-01-16 10:42:00,
2013-01-16 03:52:00,18.0,-3.0,30.59,NE,37,1.0,7.0,38,0.00,,,0.00,,2013-01-16 10:52:00,
2013-01-16 04:02:00,19.0,-2.0,30.58,NE,52,1.0,5.0,38,0.00,,,0.00,,2013-01-16 11:02:00,
2013-01-16 04:12:00,19.0,-2.0,30.58,NE,52,1.0,5.0,38,0.00,,,0.00,,2013-01-16 11:12:00,
2013-01-16 04:22:00,20.0,-2.0,30.58,SE,142,2.0,4.0,37,0.00,,,0.00,,2013-01-16 11:22:00,
2013-01-16 04:33:00,20.0,-2.0,30.58,SE,142,2.0,4.0,37,0.00,,,0.00,,2013-01-16 11:33:00,
2013-01-16 04:42:00,20.0,-2.0,30.58,SE,142,2.0,4.0,37,0.00,,,0.00,,2013-01-16 11:42:00,
2013-01-16 04:52:00,17.0,-3.0,30.58,ENE,78,7.0,13.0,41,0.00,,,0.00,,2013-01-16 11:52:00,
2013-01-16 05:03:00,16.0,-3.0,30.57,ENE,78,14.0,17.0,42,0.00,,,0.00,,2013-01-16 12:03:00,
2013-01-16 05:13:00,16.0,-3.0,30.57,ENE,78,14.0,17.0,42,0.00,,,0.00,,2013-01-16 12:13:00,
2013-01-16 05:22:00,16.0,-3.0,30.57,ENE,70,21.0,24.0,41,0.00,,,0.00,,2013-01-16 12:22:00,
2013-01-16 05:33:00,16.0,-3.0,30.58,ENE,71,21.0,24.0,41,0.00,,,0.00,,2013-01-16 12:33:00,
2013-01-16 05:43:00,16.0,-3.0,30.58,ENE,71,21.0,24.0,41,0.00,,,0.00,,2013-01-16 12:43:00,
2013-01-16 05:53:00,16.0,-4.0,30.57,ENE,74,20.0,23.0,40,0.00,,,0.00,,2013-01-16 12:53:00,
2013-01-16 06:03:00,16.0,-4.0,30.57,ENE,74,20.0,23.0,40,0.00,,,0.00,,2013-01-16 13:03:00,
2013-01-16 06:12:00,16.0,-4.0,30.57,ENE,74,20.0,23.0,40,0.00,,,0.00,,2013-01-16 13:12:00,
2013-01-16 06:22:00,16.0,-3.0,30.58,ENE,66,11.0,16.0,41,0.00,,,0.00,,2013-01-16 13:22:00,
2013-01-16 06:33:00,16.0,-3.0,30.58,NE,45,11.0,14.0,41,0.00,,,0.00,,2013-01-16 13:33:00,
2013-01-16 06:43:00,16.0,-3.0,30.58,NE,45,11.0,14.0,41,0.00,,,0.00,,2013-01-16 13:43:00,
2013-01-16 06:52:00,16.0,-3.0,30.58,ENE,65,13.0,15.0,42,0.00,,,0.00,,2013-01-16 13:52:00,
2013-01-16 07:03:00,16.0,-3.0,30.58,ENE,72,14.0,17.0,42,0.00,,,0.00,,2013-01-16 14:03:00,
2013-01-16 07:12:00,16.0,-3.0,30.58,ENE,72,14.0,17.0,42,0.00,,,0.00,,2013-01-16 14:12:00,
2013-01-16 07:23:00,15.0,-3.0,30.58,East,79,18.0,20.0,43,0.00,,,0.00,,2013-01-16 14:23:00,
2013-01-16 07:33:00,15.0,-3.0,30.58,ENE,70,18.0,22.0,43,0.00,,,0.00,,2013-01-16 14:33:00,
2013-01-16 07:43:00,15.0,-3.0,30.58,ENE,70,18.0,22.0,43,0.00,,,0.00,,2013-01-16 14:43:00,
2013-01-16 07:53:00,15.0,-3.0,30.59,ENE,66,12.0,17.0,43,0.00,,,0.00,,2013-01-16 14:53:00,
2013-01-16 08:03:00,16.0,-3.0,30.60,ENE,67,12.0,14.0,42,0.00,,,0.00,,2013-01-16 15:03:00,
2013-01-16 08:12:00,16.0,-3.0,30.60,ENE,67,12.0,14.0,42,0.00,,,0.00,,2013-01-16 15:12:00,
2013-01-16 08:23:00,17.0,-2.0,30.61,ENE,64,13.0,16.0,42,0.00,,,0.00,,2013-01-16 15:23:00,
2013-01-16 08:33:00,17.0,-2.0,30.61,ENE,63,13.0,17.0,42,0.00,,,0.00,,2013-01-16 15:33:00,
2013-01-16 08:43:00,17.0,-2.0,30.61,ENE,63,13.0,17.0,42,0.00,,,0.00,,2013-01-16 15:43:00,
2013-01-16 08:52:00,18.0,-2.0,30.63,ENE,59,10.0,14.0,41,0.00,,,0.00,,2013-01-16 15:52:00,
2013-01-16 09:03:00,19.0,-1.0,30.64,NE,43,8.0,15.0,40,0.00,,,0.00,,2013-01-16 16:03:00,
2013-01-16 09:12:00,19.0,-1.0,30.64,NE,43,8.0,15.0,40,0.00,,,0.00,,2013-01-16 16:12:00,
2013-01-16 09:22:00,21.0,0.0,30.64,ENE,59,8.0,11.0,39,0.00,,,0.00,,2013-01-16 16:22:00,
2013-01-16 09:33:00,22.0,0.0,30.65,ENE,57,3.0,7.0,37,0.00,,,0.00,,2013-01-16 16:33:00,
2013-01-16 09:42:00,22.0,0.0,30.65,ENE,57,3.0,7.0,37,0.00,,,0.00,,2013-01-16 16:42:00,
2013-01-16 09:52:00,25.0,1.0,30.65,SSW,206,2.0,6.0,34,0.00,,,0.00,,2013-01-16 16:52:00,
2013-01-16 10:03:00,27.0,1.0,30.66,NE,46,3.0,6.0,32,0.00,,,0.00,,2013-01-16 17:03:00,
2013-01-16 10:12:00,27.0,1.0,30.66,NE,46,3.0,6.0,32,0.00,,,0.00,,2013-01-16 17:12:00,
2013-01-16 10:23:00,28.0,1.0,30.66,NE,42,7.0,10.0,31,0.00,,,0.00,,2013-01-16 17:23:00,
2013-01-16 10:33:00,29.0,1.0,30.66,North,349,2.0,6.0,30,0.00,,,0.00,,2013-01-16 17:33:00,
2013-01-16 10:43:00,29.0,1.0,30.66,North,349,2.0,6.0,30,0.00,,,0.00,,2013-01-16 17:43:00,
2013-01-16 10:53:00,31.0,3.0,30.65,SSW,206,4.0,7.0,30,0.00,,,0.00,,2013-01-16 17:53:00,
2013-01-16 11:03:00,33.0,3.0,30.64,SW,232,2.0,7.0,28,0.00,,,0.00,,2013-01-16 18:03:00,
2013-01-16 11:13:00,33.0,3.0,30.64,SW,232,2.0,7.0,28,0.00,,,0.00,,2013-01-16 18:13:00,
2013-01-16 11:23:00,32.0,3.0,30.63,West,271,4.0,6.0,28,0.00,,,0.00,,2013-01-16 18:23:00,
2013-01-16 11:33:00,33.0,3.0,30.62,West,279,4.0,7.0,28,0.00,,,0.00,,2013-01-16 18:33:00,
2013-01-16 11:42:00,33.0,3.0,30.62,West,279,4.0,7.0,28,0.00,,,0.00,,2013-01-16 18:42:00,
2013-01-16 11:53:00,35.0,4.0,30.62,East,92,2.0,6.0,27,0.00,,,0.00,,2013-01-16 18:53:00,
2013-01-16 12:03:00,37.0,4.0,30.61,ESE,115,2.0,6.0,25,0.00,,,0.00,,2013-01-16 19:03:00,
2013-01-16 12:12:00,37.0,4.0,30.61,ESE,115,2.0,6.0,25,0.00,,,0.00,,2013-01-16 19:12:00,
2013-01-16 12:23:00,37.0,4.0,30.60,NNE,29,3.0,6.0,25,0.00,,,0.00,,2013-01-16 19:23:00,
2013-01-16 12:33:00,37.0,4.0,30.60,NNE,31,2.0,5.0,25,0.00,,,0.00,,2013-01-16 19:33:00,
2013-01-16 12:43:00,37.0,4.0,30.60,NNE,31,2.0,5.0,25,0.00,,,0.00,,2013-01-16 19:43:00,
2013-01-16 12:52:00,37.0,4.0,30.59,NNE,20,0.0,4.0,25,0.00,,,0.00,,2013-01-16 19:52:00,
2013-01-16 13:03:00,39.0,5.0,30.59,ENE,74,2.0,5.0,24,0.00,,,0.00,,2013-01-16 20:03:00,
2013-01-16 13:12:00,39.0,5.0,30.59,ENE,74,2.0,5.0,24,0.00,,,0.00,,2013-01-16 20:12:00,
2013-01-16 13:23:00,40.0,6.0,30.58,SW,232,3.0,7.0,24,0.00,,,0.00,,2013-01-16 20:23:00,
2013-01-16 13:33:00,42.0,6.0,30.58,SW,225,4.0,8.0,22,0.00,,,0.00,,2013-01-16 20:33:00,
2013-01-16 13:42:00,42.0,6.0,30.58,SW,225,4.0,8.0,22,0.00,,,0.00,,2013-01-16 20:42:00,
2013-01-16 13:53:00,40.0,5.0,30.57,SSW,213,5.0,8.0,23,0.00,,,0.00,,2013-01-16 20:53:00,
2013-01-16 14:03:00,41.0,6.0,30.56,West,269,3.0,11.0,23,0.00,,,0.00,,2013-01-16 21:03:00,
2013-01-16 14:12:00,41.0,6.0,30.56,West,269,3.0,11.0,23,0.00,,,0.00,,2013-01-16 21:12:00,
2013-01-16 14:22:00,42.0,7.0,30.56,SW,235,6.0,11.0,23,0.00,,,0.00,,2013-01-16 21:22:00,
2013-01-16 14:33:00,42.0,7.0,30.55,NW,316,4.0,10.0,23,0.00,,,0.00,,2013-01-16 21:33:00,
2013-01-16 14:43:00,42.0,7.0,30.55,NW,316,4.0,10.0,23,0.00,,,0.00,,2013-01-16 21:43:00,
2013-01-16 14:52:00,42.0,7.0,30.54,North,360,5.0,9.0,23,0.00,,,0.00,,2013-01-16 21:52:00,
2013-01-16 15:03:00,43.0,8.0,30.54,North,355,4.0,11.0,23,0.00,,,0.00,,2013-01-16 22:03:00,
2013-01-16 15:12:00,43.0,8.0,30.54,North,355,4.0,11.0,23,0.00,,,0.00,,2013-01-16 22:12:00,
2013-01-16 15:23:00,44.0,8.0,30.54,NNE,31,4.0,13.0,22,0.00,,,0.00,,2013-01-16 22:23:00,
2013-01-16 15:33:00,44.0,8.0,30.53,NNE,32,3.0,8.0,22,0.00,,,0.00,,2013-01-16 22:33:00,
2013-01-16 15:43:00,44.0,8.0,30.53,NNE,32,3.0,8.0,22,0.00,,,0.00,,2013-01-16 22:43:00,
2013-01-16 15:52:00,43.0,7.0,30.53,West,267,5.0,9.0,22,0.00,,,0.00,,2013-01-16 22:52:00,
2013-01-16 16:03:00,44.0,8.0,30.53,NW,312,5.0,8.0,22,0.00,,,0.00,,2013-01-16 23:03:00,
2013-01-16 16:12:00,44.0,8.0,30.53,NW,312,5.0,8.0,22,0.00,,,0.00,,2013-01-16 23:12:00,
2013-01-16 16:23:00,44.0,8.0,30.54,West,269,5.0,9.0,22,0.00,,,0.00,,2013-01-16 23:23:00,
2013-01-16 16:32:00,44.0,8.0,30.54,West,267,5.0,9.0,22,0.00,,,0.00,,2013-01-16 23:32:00,
2013-01-16 16:42:00,44.0,8.0,30.54,West,267,5.0,9.0,22,0.00,,,0.00,,2013-01-16 23:42:00,
2013-01-16 16:52:00,44.0,8.0,30.55,WNW,298,3.0,7.0,22,0.00,,,0.00,,2013-01-16 23:52:00,
2013-01-16 17:02:00,44.0,8.0,30.55,West,281,4.0,9.0,22,0.00,,,0.00,,2013-01-17 00:02:00,
2013-01-16 17:12:00,44.0,8.0,30.55,West,281,4.0,9.0,22,0.00,,,0.00,,2013-01-17 00:12:00,
2013-01-16 17:22:00,44.0,8.0,30.56,West,274,7.0,10.0,22,0.00,,,0.00,,2013-01-17 00:22:00,
2013-01-16 17:32:00,43.0,8.0,30.56,West,281,6.0,8.0,23,0.00,,,0.00,,2013-01-17 00:32:00,
2013-01-16 17:42:00,43.0,8.0,30.56,West,281,6.0,8.0,23,0.00,,,0.00,,2013-01-17 00:42:00,
2013-01-16 17:52:00,42.0,7.0,30.56,West,265,5.0,9.0,23,0.00,,,0.00,,2013-01-17 00:52:00,
2013-01-16 18:02:00,41.0,6.0,30.57,West,268,8.0,10.0,23,0.00,,,0.00,,2013-01-17 01:02:00,
2013-01-16 18:12:00,41.0,6.0,30.57,West,268,8.0,10.0,23,0.00,,,0.00,,2013-01-17 01:12:00,
2013-01-16 18:22:00,40.0,5.0,30.57,West,263,7.0,10.0,23,0.00,,,0.00,,2013-01-17 01:22:00,
2013-01-16 18:33:00,40.0,5.0,30.57,West,267,7.0,10.0,23,0.00,,,0.00,,2013-01-17 01:33:00,
2013-01-16 18:42:00,40.0,5.0,30.57,West,267,7.0,10.0,23,0.00,,,0.00,,2013-01-17 01:42:00,
2013-01-16 18:52:00,40.0,5.0,30.57,West,276,5.0,7.0,23,0.00,,,0.00,,2013-01-17 01:52:00,
2013-01-16 19:02:00,40.0,5.0,30.57,West,273,5.0,6.0,23,0.00,,,0.00,,2013-01-17 02:02:00,
2013-01-16 19:12:00,40.0,5.0,30.57,West,273,5.0,6.0,23,0.00,,,0.00,,2013-01-17 02:12:00,
2013-01-16 19:22:00,40.0,5.0,30.56,WSW,250,3.0,5.0,23,0.00,,,0.00,,2013-01-17 02:22:00,
2013-01-16 19:32:00,40.0,5.0,30.56,SW,230,4.0,6.0,23,0.00,,,0.00,,2013-01-17 02:32:00,
2013-01-16 19:42:00,40.0,5.0,30.56,SW,230,4.0,6.0,23,0.00,,,0.00,,2013-01-17 02:42:00,
2013-01-16 19:52:00,40.0,5.0,30.56,SW,230,4.0,6.0,23,0.00,,,0.00,,2013-01-17 02:52:00,
2013-01-16 20:03:00,39.0,5.0,30.58,West,259,4.0,5.0,24,0.00,,,0.00,,2013-01-17 03:03:00,
2013-01-16 20:12:00,39.0,5.0,30.58,West,259,4.0,5.0,24,0.00,,,0.00,,2013-01-17 03:12:00,
2013-01-16 20:22:00,39.0,5.0,30.58,West,263,4.0,6.0,24,0.00,,,0.00,,2013-01-17 03:22:00,
2013-01-16 20:32:00,39.0,5.0,30.58,SW,236,3.0,4.0,24,0.00,,,0.00,,2013-01-17 03:32:00,
2013-01-16 20:42:00,39.0,5.0,30.58,SW,236,3.0,4.0,24,0.00,,,0.00,,2013-01-17 03:42:00,
2013-01-16 20:52:00,39.0,5.0,30.58,SW,236,3.0,4.0,24,0.00,,,0.00,,2013-01-17 03:52:00,
2013-01-16 21:02:00,39.0,6.0,30.58,North,5,1.0,4.0,25,0.00,,,0.00,,2013-01-17 04:02:00,
2013-01-16 21:12:00,39.0,7.0,30.58,SW,220,0.0,5.0,26,0.00,,,0.00,,2013-01-17 04:12:00,
2013-01-16 21:22:00,39.0,7.0,30.58,SW,220,0.0,5.0,26,0.00,,,0.00,,2013-01-17 04:22:00,
2013-01-16 21:32:00,38.0,6.0,30.58,SW,220,0.0,3.0,26,0.00,,,0.00,,2013-01-17 04:32:00,
2013-01-16 21:42:00,38.0,6.0,30.58,SW,220,0.0,3.0,26,0.00,,,0.00,,2013-01-17 04:42:00,
2013-01-16 21:52:00,38.0,6.0,30.58,SSW,192,3.0,5.0,26,0.00,,,0.00,,2013-01-17 04:52:00,
2013-01-16 22:04:00,38.0,6.0,30.58,SSE,148,5.0,6.0,26,0.00,,,0.00,,2013-01-17 05:04:00,
2013-01-16 22:12:00,38.0,6.0,30.58,SSE,148,5.0,6.0,26,0.00,,,0.00,,2013-01-17 05:12:00,
2013-01-16 22:22:00,37.0,5.0,30.59,SE,138,4.0,7.0,26,0.00,,,0.00,,2013-01-17 05:22:00,
2013-01-16 22:33:00,37.0,5.0,30.59,SE,138,4.0,7.0,26,0.00,,,0.00,,2013-01-17 05:33:00,
2013-01-16 22:42:00,37.0,5.0,30.59,SE,138,4.0,7.0,26,0.00,,,0.00,,2013-01-17 05:42:00,
2013-01-16 22:52:00,37.0,5.0,30.59,SSE,147,2.0,6.0,26,0.00,,,0.00,,2013-01-17 05:52:00,
2013-01-16 23:02:00,37.0,6.0,30.59,SSE,150,0.0,2.0,27,0.00,,,0.00,,2013-01-17 06:02:00,
2013-01-16 23:12:00,37.0,6.0,30.59,SSE,150,0.0,2.0,27,0.00,,,0.00,,2013-01-17 06:12:00,
2013-01-16 23:22:00,37.0,6.0,30.59,SE,140,1.0,3.0,27,0.00,,,0.00,,2013-01-17 06:22:00,
2013-01-16 23:32:00,37.0,6.0,30.59,ENE,61,3.0,4.0,27,0.00,,,0.00,,2013-01-17 06:32:00,
2013-01-16 23:42:00,37.0,6.0,30.59,ENE,61,3.0,4.0,27,0.00,,,0.00,,2013-01-17 06:42:00,
2013-01-16 23:52:00,36.0,5.0,30.58,NE,52,3.0,6.0,27,0.00,,,0.00,,2013-01-17 06:52:00,